Regional Weather Roundup
Issued by NWS

Home | Current Version | Previous Version | Text Only | Print | Product List | Glossary Off
Versions: 1 2 3 4 5 6 7 8 9 10 11 12 13 14 15 16 17 18 19 20 21 22 23 24 25 26 27 28 29 30 31 32 33 34 35 36 37 38 39 40 41 42 43 44 45 46 47 48 49 50

000
ASUS45 KABQ 310501
RWRNM
NEW MEXICO REGIONAL WEATHER ROUNDUP
NATIONAL WEATHER SERVICE ALBUQUERQUE NM
1100 PM MDT MON MAY 30 2016

NOTE: "FAIR" MEANS FEW OR NO CLOUDS BELOW 12,000 FEET AGL WITH NO
       SIGNIFICANT WEATHER OR OBSTRUCTIONS TO VISION.

      THIS PRODUCT IS RELEASED AS TWO VERSIONS.  ONE VERSION NEAR
      THE TOP OF THE HOUR CONTAINING PRELIMINARY DATA FROM ALBUQUERQUE
      AND OTHER STATIONS.  A FINAL VERSION WITH ADDITIONAL DATA IS
      ISSUED ABOUT 10 MINUTES AFTER THE HOUR.

NMZ501-503-504-510>518-310600-
NORTHWEST PLATEAU/NORTHCENTRAL MOUNTAINS

CITY           SKY/WX    TMP DP  RH WIND       PRES   REMARKS
FARMINGTON     FAIR      62  19  19 NW7       30.00R
SANTA FE       FAIR      65  26  23 W8        30.05R
TAOS           FAIR      59  25  27 N16       30.11S

$$
NMZ402-403-502-505>509-310600-
WESTCENTRAL MOUNTAINS/SOUTHWEST MOUNTAINS

CITY           SKY/WX    TMP DP  RH WIND       PRES   REMARKS
GALLUP         FAIR      51  23  33 CALM      30.09R
GRANTS         FAIR      58  24  26 CALM      30.10S
SILVER CITY      N/A     61  41  48 NE9       30.06S

$$
NMZ407-409-411-412-310600-
SOUTHERN DESERTS

CITY           SKY/WX    TMP DP  RH WIND       PRES   REMARKS
LORDSBURG      MOCLDY    66  46  48 SE13      29.97R
DEMING         FAIR      66  46  48 E7        29.99R
HOLLOMAN AFB   FAIR      67  52  57 S17       30.00R
ALAMOGORDO     FAIR      70  46  43 S17G24    30.02R
T OR C         FAIR      67  48  50 SE3       29.97F

$$
NMZ519>523-310600-
CENTRAL VALLEYS/CENTRAL HIGHLANDS

CITY           SKY/WX    TMP DP  RH WIND       PRES   REMARKS
ALBUQUERQUE    MOCLDY    71  32  23 SE5       30.01R
DOUBLE EAGLE   FAIR      65  32  29 W5        30.04F
CLINES CORNERS FAIR      58  34  40 SW15      30.09S
BELEN          MOCLDY    72  32  22 W9        30.00S
SOCORRO        NOT AVBL

$$
NMZ524>526-539-540-310600-
SOUTHCENTRAL MOUNTAINS

CITY           SKY/WX    TMP DP  RH WIND       PRES   REMARKS
RUIDOSO        NOT AVBL

$$
NMZ527>531-310600-
NORTHEAST HIGHLANDS/NORTHEAST PLAINS

CITY           SKY/WX    TMP DP  RH WIND       PRES   REMARKS
LAS VEGAS      FAIR      57  33  40 S15       30.08R
RATON          FAIR      55  36  48 N9        30.05R
CLAYTON        FAIR      61  42  49 S14       29.96S

$$
NMZ532>537-310600-
EASTCENTRAL PLAINS

CITY           SKY/WX    TMP DP  RH WIND       PRES   REMARKS
TUCUMCARI      FAIR      67  40  37 SW6       29.91R
CANNON AFB     FAIR      66  49  53 SW2       29.94F
CLOVIS AIRPORT FAIR      64  46  52 CALM      29.95F

$$
NMZ028-029-538-310600-
SOUTHEAST PLAINS

CITY           SKY/WX    TMP DP  RH WIND       PRES   REMARKS
ROSWELL        FAIR      61  50  67 SW7       29.97F
ARTESIA        FAIR      61  61 100 SW13      29.99F
CARLSBAD       FAIR      62  58  86 NW5       29.96S
HOBBS          FAIR      63  54  72 W7        29.97R


$$




USA.gov is the U.S. government's official web portal to all federal, state and local government web resources and services.